Location: Rowland
(34.5359°N, 79.2929°W)
Time: 13:35:48
(UTC+00:00)

Transit 4A - Pass Details

Date: 12 October 2022
Orbit: 871 x 972 km, 66.8° (Epoch: 29 November)

Event Time Altitude Azimuth Distance (km) Brightness Sun altitude
Rises 01:14:03 0° 216° (SW) 3,610 11.3 -30.8°
Reaches altitude 10° 01:16:40 10° 221° (SW) 2,655 10.5 -31.3°
Maximum altitude 01:22:44 57° 299° (WNW) 1,082 8.4 -32.5°
Enters shadow 01:23:46 51° 336° (NNW) 1,156 8.5 -32.7°
Drops below altitude 10° 01:28:40 10° 18° (NNE) 2,598 - -33.7°
Sets 01:31:13 0° 22° (NNE) 3,527 - -34.2°
